EW6942 Weather Reports


time (UTC)temp
F
wind
direction
speed
knots
gust
knots
rain 1hr
in
rain 24hr
in
rain mn
in
humidity
%
barometer
mb
20260906113034 71 165 0.0 0.0 0.00 0.07 0.00 74 1010.4
20260906111538 69 167 0.0 0.0 0.00 0.07 0.00 73 1010.2
20260906110035 69 160 0.0 0.0 0.00 0.07 0.00 73 1010.0
20260906104538 69 148 0.0 2.6 0.00 0.07 0.00 73 1009.7
20260906103035 69 150 0.0 1.7 0.00 0.07 0.00 73 1009.7
20260906101533 69 161 0.0 1.7 0.00 0.07 0.00 73 1009.6
20260906100033 69 167 0.0 1.7 0.00 0.07 0.00 73 1009.7
20260906094529 69 142 0.0 0.0 0.00 0.07 0.00 73 1009.7
20260906093031 69 167 0.0 0.0 0.00 0.07 0.00 73 1009.5
20260906091534 69 167 0.0 0.9 0.00 0.07 0.00 73 1009.6
20260906090028 69 167 0.0 0.9 0.00 0.07 0.00 73 1009.5
20260906084527 70 167 0.0 1.7 0.00 0.07 0.00 73 1009.4
20260906083026 70 167 0.0 0.9 0.00 0.07 0.00 73 1009.3
20260906081525 70 142 0.0 1.7 0.00 0.07 0.00 73 1009.4
20260906080026 70 94 0.0 0.0 0.00 0.07 0.00 74 1009.4
20260906074527 70 144 0.0 1.7 0.00 0.07 0.00 73 1009.5
20260906073025 70 132 0.9 1.7 0.00 0.07 0.00 74 1009.7
20260906071522 70 122 0.0 1.7 0.00 0.07 0.00 74 1009.8
20260906070019 70 144 0.0 0.9 0.00 0.07 0.00 74 1009.8
20260906064518 71 127 0.0 0.0 0.00 0.07 0.00 74 1009.7
20260906063016 71 152 0.0 0.0 0.00 0.07 0.00 74 1009.9
20260906061517 71 152 0.0 0.0 0.00 0.07 0.00 74 1010.1
20260906060013 71 122 0.0 0.0 0.00 0.07 0.00 74 1010.1
20260906054512 71 137 0.0 0.9 0.00 0.07 0.00 74 1010.2
20260906053010 71 140 0.0 1.7 0.00 0.07 0.00 74 1010.3
20260906051508 72 150 0.0 1.7 0.00 0.07 0.00 74 1010.5
20260906050006 72 110 0.0 1.7 0.00 0.07 0.00 74 1010.6
20260906044506 72 91 0.0 1.7 0.00 0.07 0.00 74 1010.7
20260906043004 72 80 0.0 1.7 0.00 0.07 0.00 74 1010.9
20260906041506 73 103 0.0 2.6 0.00 0.07 0.00 74 1010.7
20260906040123 73 99 0.0 0.9 0.00 0.07 0.00 74 1010.5
20260906034559 73 23 0.0 0.9 0.00 0.07 0.07 74 1010.5
20260906033108 73 3 0.0 1.7 0.00 0.07 0.07 74 1010.7
20260906031600 73 103 0.0 0.9 0.00 0.07 0.07 74 1010.7
20260906030056 73 107 0.0 0.9 0.00 0.07 0.07 74 1010.5
20260906024607 74 113 0.0 0.9 0.00 0.07 0.07 74 1010.5
20260906023056 74 113 0.0 1.7 0.00 0.07 0.07 74 1010.5
20260906021554 74 64 0.9 1.7 0.00 0.07 0.07 74 1010.3
20260906020055 74 74 0.9 3.5 0.00 0.07 0.07 74 1010.1
20260906014557 74 136 0.9 2.6 0.00 0.07 0.07 74 1009.8
20260906013051 74 167 0.0 1.7 0.00 0.07 0.07 74 1009.6
20260906011549 75 155 0.0 1.7 0.00 0.07 0.07 74 1009.6
20260906010048 75 75 0.0 1.7 0.00 0.07 0.07 74 1009.6
20260906004547 75 101 0.0 3.5 0.00 0.07 0.07 74 1009.7
20260906003046 75 142 0.9 2.6 0.00 0.07 0.07 74 1009.7
20260906001545 75 153 0.0 1.7 0.00 0.07 0.07 74 1009.9
20260906000044 76 108 1.7 3.5 0.00 0.07 0.07 74 1010.0
20260905234547 76 120 0.9 2.6 0.00 0.07 0.07 74 1010.4
20260905233044 76 335 0.9 4.3 0.00 0.07 0.07 74 1010.8
20260905231547 76 348 0.0 2.6 0.00 0.07 0.07 74 1010.0
20260905230100 76 91 0.0 1.7 0.00 0.07 0.07 74 1010.3
20260905224542 76 167 0.0 0.9 0.00 0.07 0.07 74 1009.8
20260905223042 76 100 0.9 2.6 0.01 0.07 0.07 74 1008.8
20260905221539 76 121 0.0 6.1 0.04 0.07 0.07 74 1008.3
20260905220038 76 124 1.7 7.8 0.07 0.07 0.07 74 1008.6
20260905214538 76 123 3.5 12.2 0.07 0.07 0.07 74 1008.5
20260905213036 77 124 5.2 9.6 0.06 0.06 0.06 74 1008.7
20260905211538 84 145 4.3 9.6 0.03 0.03 0.03 75 1009.2
20260905210035 85 106 0.9 3.5 0.00 0.00 0.00 75 1008.6
20260905204535 85 96 1.7 7.0 0.00 0.00 0.00 75 1008.1
20260905203034 83 66 4.3 14.8 0.00 0.00 0.00 75 1008.2
20260905201534 86 117 2.6 8.7 0.00 0.00 0.00 76 1008.3
20260905200032 92 140 2.6 6.1 0.00 0.00 0.00 76 1008.1
20260905194531 94 105 2.6 6.1 0.00 0.00 0.00 77 1008.2
20260905193029 95 96 1.7 7.8 0.00 0.00 0.00 77 1008.3
20260905191527 95 121 6.1 10.4 0.00 0.00 0.00 77 1008.5
20260905190023 95 88 3.5 9.6 0.00 0.00 0.00 77 1008.6
20260905184522 95 123 5.2 7.8 0.00 0.00 0.00 77 1009.1
20260905183017 95 46 2.6 0.0 0.00 0.00 0.00 77 1009.4
20260905181514 95 53 5.2 13.0 0.00 0.00 0.00 77 1009.8
20260905180007 94 109 2.6 6.1 0.00 0.00 0.00 77 1010.0
20260905174505 94 167 4.3 7.8 0.00 0.00 0.00 77 1010.3
20260905173002 94 103 3.5 7.0 0.00 0.00 0.00 77 1010.7
20260905171605 94 149 1.7 6.1 0.00 0.00 0.00 77 1010.7
20260905170055 94 146 1.7 7.8 0.00 0.00 0.00 76 1011.0
20260905164551 93 167 3.5 6.1 0.00 0.00 0.00 76 1011.3
20260905163048 92 126 4.3 7.8 0.00 0.00 0.00 76 1011.5
20260905161543 90 125 2.6 8.7 0.00 0.00 0.00 76 1011.7
20260905160047 90 120 4.3 8.7 0.00 0.00 0.00 76 1011.8
20260905154600 89 127 4.3 8.7 0.00 0.00 0.00 76 1012.0
20260905153044 89 111 5.2 8.7 0.00 0.00 0.00 76 1012.1
20260905151542 88 111 5.2 9.6 0.00 0.00 0.00 76 1012.4
20260905150040 88 141 3.5 7.0 0.00 0.00 0.00 76 1012.3
20260905144538 87 135 2.6 7.8 0.00 0.00 0.00 76 1012.5
20260905143035 86 84 2.6 7.0 0.00 0.00 0.00 75 1012.6
20260905141533 85 86 2.6 7.0 0.00 0.00 0.00 75 1012.7
20260905140034 84 125 3.5 7.0 0.00 0.00 0.00 75 1012.7
20260905134540 83 94 4.3 7.0 0.00 0.00 0.00 75 1012.8
20260905133024 82 133 4.3 6.1 0.00 0.00 0.00 75 1012.8
20260905131520 81 120 2.6 7.0 0.00 0.00 0.00 75 1012.8
20260905130017 80 151 3.5 7.0 0.00 0.00 0.00 75 1012.8
20260905124520 80 148 3.5 5.2 0.00 0.00 0.00 75 1012.8
20260905123015 79 129 1.7 5.2 0.00 0.00 0.00 75 1012.8
20260905121516 78 131 3.5 6.1 0.00 0.00 0.00 75 1012.5
20260905120023 78 103 2.6 5.2 0.00 0.00 0.00 74 1012.5
20260905114514 77 133 1.7 5.2 0.00 0.00 0.00 74 1012.5